Location: Écuvilly
(49.6505°N, 2.9206°E)
Time: 17:23:22
(UTC+00:00)

Cosmos 2195 Rocket - Pass Details

Date: 17 November 2025
Orbit: 949 x 991 km, 82.9° (Epoch: 10 December)

Event Time Altitude Azimuth Distance (km) Brightness Sun altitude
Rises 18:24:55 0° 350° (N) 3,698 7.6 -22.7°
Reaches altitude 10° 18:27:26 10° 351° (N) 2,751 6.9 -23.2°
Maximum altitude 18:33:47 85° 81° (E) 1,000 4.4 -24.2°
Drops below altitude 10° 18:40:07 10° 170° (S) 2,747 6.8 -25.2°
Sets 18:42:37 0° 171° (S) 3,692 7.4 -25.6°
